Helicity
17 7 27 31 25 41 -18 -14 198 51 38 40 63 88 92 84 92 144 174 116 126 140 123 101 135 153 141 170 176 163 257 235 225 207 222 263 260 254 224 198 176 131 106 101 126
27 11 44 -22 66 24 38 64 25 23 30 46 64 67 93 124 131 175 127 111 115 124 115 142 152 155 150 152 171 198 194 141 165 163 153 200 222 213 222 210 159 123 113 120 126
32 66 46 119 173 187 127 41 48 36 50 63 66 82 104 103 94 139 122 91 111 122 66 70 97 120 150 154 168 163 151 159 155 170 188 176 185 196 176 158 116 118 97 109 96
54 45 60 149 114 173 81 40 29 37 47 62 69 75 82 56 29 79 112 91 102 75 30 93 112 151 166 173 160 168 146 135 149 158 157 162 152 176 138 97 84 44 60 70 82
26 37 78 110 77 69 50 48 53 48 58 66 63 68 55 79 56 71 57 28 6 10 108 97 167 147 152 135 136 119 126 140 125 132 98 104 107 90 100 62 60 64 78 72 69
23 41 62 72 71 68 40 33 39 44 57 81 92 78 36 11 57 32 21 17 14 42 85 102 124 94 122 135 145 128 85 91 83 83 84 84 95 98 80 60 94 86 88 86 80
21 35 50 49 45 40 40 51 68 75 69 73 63 39 57 37 35 29 7 6 14 39 64 51 69 96 98 121 149 106 94 94 68 104 91 47 86 79 47 139 118 106 86 88 97
41 52 66 65 62 68 73 87 89 78 79 81 55 30 49 33 22 -9 -13 -8 -15 -19 -12 22 42 74 93 81 112 91 110 74 63 110 67 52 107 98 127 103 121 129 109 92 67
33 42 56 66 52 71 77 79 82 81 73 62 32 31 50 31 15 13 -14 14 -1 -7 17 48 89 147 130 143 132 122 101 71 42 56 70 76 121 87 120 133 151 151 144 124 84
28 32 44 64 67 43 64 74 73 43 35 41 25 30 27 32 26 17 14 43 75 34 76 109 123 146 130 130 149 98 62 63 55 63 61 74 87 65 89 108 98 126 113 71 58
5 7 18 42 68 51 56 79 64 64 31 46 54 39 44 45 53 60 56 28 57 57 83 86 158 195 196 210 201 227 235 211 92 35 39 81 64 48 37 69 77 81 79 79 67
20 18 17 35 33 -2 -25 27 48 56 59 50 47 40 47 28 46 50 81 29 33 46 68 115 188 176 172 189 246 267 294 229 105 13 -28 -46 -18 55 59 61 82 86 97 80 87
31 39 55 61 120 66 6 23 26 17 52 53 61 47 50 67 40 27 62 32 19 36 69 145 152 125 203 203 243 265 378 288 210 36 34 63 53 -32 45 58 45 89 136 119 71
17 13 43 65 106 97 61 45 39 26 21 36 31 33 65 57 28 53 57 27 13 42 58 110 132 180 217 227 285 289 265 243 214 132 147 66 126 33 1 34 43 76 122 76 46
24 29 41 85 81 53 82 58 52 10 10 33 23 67 63 12 19 27 63 39 48 54 76 102 145 179 198 242 261 290 253 237 205 183 134 118 127 66 -1 -27 -45 16 30 20 27
27 29 56 74 76 70 60 62 32 7 46 19 22 20 14 23 17 23 32 48 60 63 78 131 83 112 177 155 201 159 224 192 198 184 150 128 129 32 12 7 -7 -11 -18 21 61
32 19 74 80 67 60 61 40 37 31 51 49 51 37 32 31 23 33 27 14 31 23 58 50 81 97 124 132 138 141 182 169 184 197 201 136 112 40 50 56 55 61 23 42 27
15 56 62 55 54 62 61 53 21 57 56 53 59 53 72 45 58 52 51 47 47 41 63 59 55 128 135 145 155 126 149 187 205 223 224 78 120 61 64 -28 27 37 -19 -1 1
29 66 65 46 33 50 58 56 46 63 53 46 52 53 52 58 66 63 94 85 71 70 68 93 116 105 121 140 155 132 144 156 250 225 219 172 92 23 27 -13 56 -3 -14 -6 5
109 89 53 33 41 54 73 40 62 52 68 84 53 85 58 60 66 71 77 86 86 86 89 121 120 99 92 136 137 177 128 161 188 191 242 215 197 236 110 37 12 -1 6 -5 4
97 100 66 25 48 70 60 44 48 58 72 84 75 74 70 65 85 81 75 91 104 114 113 148 159 119 138 153 166 171 172 182 183 229 237 269 231 166 214 112 19 8 14 19 11
90 93 57 45 40 42 43 47 62 55 72 68 79 83 83 88 74 74 78 97 140 153 127 101 160 166 162 132 123 140 179 222 239 209 275 320 174 94 143 122 164 102 47 18 30
57 78 50 64 73 31 29 37 41 54 58 65 61 73 93 74 47 85 79 96 155 145 143 147 175 148 76 95 122 164 190 234 264 261 293 254 132 94 136 172 164 185 155 115 102
55 25 70 73 77 80 50 46 38 48 65 76 66 97 95 78 91 63 93 95 106 129 161 161 227 211 287 195 189 261 261 279 318 296 271 436 275 259 179 196 156 143 131 99 76
88 68 92 86 120 117 109 96 79 54 50 60 61 54 91 66 61 62 72 84 128 160 204 165 165 182 241 227 207 220 203 265 395 385 275 227 249 325 219 144 142 115 74 78 89
117 137 132 112 119 118 138 115 118 71 85 61 113 86 89 133 117 95 102 95 61 178 171 194 147 106 115 109 81 162 204 180 196 228 271 263 183 155 82 18 35 58 68 75 88
156 188 221 187 143 148 125 118 125 103 71 80 75 113 113 136 129 127 144 165 190 254 234 238 180 106 50 21 8 56 82 161 172 237 218 231 272 154 113 82 54 66 62 110 110
Wind_Speed
49 34 29 24 21 45 59 53 45 27 18 12 10 8 5 6 12 17 24 27 32 40 39 32 33 35 31 32 33 33 55 66 63 62 61 49 50 47 45 51 49 47 45 42 45
39 40 38 31 33 50 61 60 49 35 20 13 14 10 8 11 20 24 28 32 37 41 38 38 38 39 36 39 41 45 58 61 55 56 60 55 55 53 55 56 57 56 56 55 52
59 51 55 49 44 37 44 47 38 32 22 14 21 24 23 23 15 23 30 35 40 44 37 35 36 36 40 42 45 47 60 57 57 57 57 60 63 57 60 68 59 61 59 61 61
76 70 64 52 43 40 41 44 45 35 27 26 24 26 25 27 18 25 23 25 30 37 35 38 37 40 45 53 49 61 55 59 60 58 63 69 65 72 70 71 62 65 70 72 77
74 66 56 47 42 38 38 40 39 35 32 28 25 25 29 12 19 27 19 18 23 33 46 37 47 42 45 49 53 60 63 62 65 71 72 72 79 80 84 81 75 77 77 79 75
71 61 52 48 45 45 51 50 45 41 37 32 30 31 32 7 30 23 21 22 29 38 44 42 36 28 33 45 54 63 72 76 75 79 80 87 90 78 77 70 74 74 75 72 73
65 61 56 50 47 46 45 44 40 36 32 26 22 33 19 29 29 22 25 25 28 32 35 32 30 34 38 51 55 63 74 76 77 68 76 69 87 85 79 71 80 80 78 74 66
54 53 49 45 42 40 38 36 32 27 26 26 28 34 32 29 26 24 23 28 24 27 29 28 31 36 40 44 51 56 58 70 62 75 68 64 97 78 74 65 66 66 68 67 66
46 42 39 36 33 32 33 31 26 25 33 28 27 32 29 23 26 22 25 24 21 30 25 27 34 40 37 38 39 42 51 66 77 63 69 68 90 77 69 73 83 80 73 69 68
40 38 34 28 22 20 24 26 25 28 26 30 30 32 26 27 25 23 26 28 28 24 35 37 38 42 38 42 40 31 28 29 40 68 79 86 97 95 87 88 90 86 78 73 70
27 25 26 25 23 21 27 29 28 28 25 35 28 32 27 22 26 26 27 23 31 31 31 34 38 43 39 31 26 26 28 24 14 18 45 78 90 92 85 88 89 85 80 78 73
19 17 16 12 19 19 30 28 28 29 33 25 25 24 24 23 21 19 30 25 26 25 26 31 34 30 29 28 29 29 28 25 15 8 7 23 82 93 84 86 87 84 77 69 62
8 7 7 1 22 23 29 31 32 32 33 28 24 25 23 26 21 18 29 23 23 21 21 25 25 24 30 30 31 29 32 32 26 18 9 3 19 48 64 66 72 68 62 53 53
8 8 5 5 21 17 17 28 30 33 33 24 24 23 24 23 20 25 27 23 22 20 18 19 22 25 26 28 31 37 31 30 26 31 33 28 22 14 16 47 48 43 35 39 41
11 5 5 30 19 15 24 30 34 27 29 18 19 24 21 20 13 21 28 22 19 18 21 23 19 21 24 28 31 30 25 23 22 27 32 38 35 26 24 28 36 8 11 28 34
19 8 14 27 29 29 25 30 29 26 25 24 18 17 16 19 19 18 21 24 19 19 19 8 11 15 22 22 22 18 26 28 35 37 45 41 37 30 31 27 28 12 15 32 40
28 7 30 32 27 29 33 29 28 27 25 21 22 19 18 20 20 22 21 23 29 30 30 22 23 19 19 23 25 29 37 49 54 52 48 39 37 23 13 17 20 25 31 46 44
31 36 34 36 38 38 33 33 29 28 24 25 23 17 25 26 24 23 22 26 27 29 29 35 33 26 25 24 27 29 37 50 57 55 44 34 39 36 24 50 15 12 46 45 42
13 36 36 38 37 38 36 43 33 32 29 24 25 26 27 28 27 29 27 26 26 28 35 31 27 20 18 20 26 31 37 29 34 33 43 41 36 25 28 36 11 38 40 42 38
43 39 39 32 36 38 41 41 38 30 32 34 31 32 25 27 29 30 28 27 28 25 28 29 25 23 23 22 23 24 26 38 37 48 54 44 44 44 35 25 31 37 39 35 30
47 48 36 36 36 43 44 44 41 34 32 34 35 35 33 32 33 29 26 26 26 27 26 28 28 29 25 24 26 28 29 31 31 32 42 50 45 30 33 27 27 29 27 26 28
50 49 40 43 48 45 47 46 43 38 34 33 33 31 33 36 36 31 27 27 25 28 29 25 27 27 26 24 24 19 22 25 33 35 28 32 28 22 19 17 20 20 19 17 10
61 45 44 45 50 52 50 50 43 42 41 40 42 34 36 39 40 30 35 36 26 30 31 30 31 34 35 33 27 22 19 17 23 24 21 30 25 19 13 12 12 16 16 11 1
57 58 48 46 40 49 60 53 53 42 43 38 42 39 42 44 33 41 42 39 31 32 32 30 30 23 24 24 29 23 18 12 10 20 20 6 13 12 11 13 15 15 12 14 13
56 55 51 56 52 48 49 50 57 56 40 39 46 41 42 51 50 44 42 48 40 37 36 35 37 33 26 23 25 26 20 11 9 8 12 19 11 20 18 17 17 19 20 14 18
61 59 55 57 55 52 46 48 49 57 50 53 51 50 43 50 46 63 54 52 48 38 36 36 43 53 50 44 37 32 22 13 13 14 20 26 31 32 29 12 7 7 8 7 5
52 51 55 58 58 59 53 51 53 52 44 43 48 61 63 57 50 49 51 51 46 43 38 44 43 54 47 57 72 41 39 14 22 18 13 16 14 17 9 8 6 9 8 14 10
Wind_Direction
108 124 136 147 162 163 160 170 169 161 164 172 186 201 244 327 347 343 341 328 326 320 324 332 332 325 325 315 314 309 288 284 285 284 285 288 282 287 290 283 282 283 283 287 287
107 118 124 123 127 137 150 156 153 161 163 155 178 183 218 257 20 6 330 333 332 327 332 332 327 325 315 309 306 295 285 285 290 289 284 284 282 283 282 280 279 280 280 284 286
107 112 115 115 118 121 132 143 150 155 160 163 181 196 215 238 334 303 306 325 331 327 358 354 341 331 312 310 303 298 286 291 289 290 288 282 280 283 280 275 279 279 282 283 284
103 111 113 116 122 129 130 137 144 150 160 173 189 197 206 217 281 240 258 266 287 316 52 13 354 327 313 302 306 292 295 292 290 291 287 281 283 278 277 277 284 283 283 282 280
99 109 113 118 124 129 132 138 146 154 161 171 187 193 184 221 196 180 191 161 122 76 23 23 347 341 323 317 308 297 295 294 291 288 285 283 278 277 275 278 282 281 280 278 280
95 101 106 111 116 122 126 130 137 141 146 153 161 167 166 208 172 174 154 131 96 65 42 32 19 19 349 326 313 303 295 293 291 287 284 278 276 277 277 282 279 279 279 279 278
93 95 100 106 112 119 124 128 134 139 144 154 168 151 152 162 161 164 135 115 92 72 55 54 45 19 358 332 321 310 300 296 292 291 287 282 273 272 278 279 277 276 276 276 280
93 95 98 102 110 118 125 131 137 145 152 154 154 148 152 153 154 139 122 99 92 79 70 65 51 33 10 351 337 324 314 303 299 295 290 282 272 276 279 276 278 281 281 275 278
93 95 97 99 108 119 127 131 138 147 143 147 150 148 150 156 134 126 105 95 90 78 74 69 56 40 34 22 7 354 330 315 302 300 293 282 276 275 279 277 274 276 277 278 279
91 94 94 93 99 122 134 137 137 141 152 142 135 137 136 130 120 110 95 86 82 76 68 60 55 46 45 35 21 10 349 333 316 301 293 285 279 275 275 274 271 273 274 276 277
93 96 98 95 91 93 116 131 134 136 122 122 131 127 134 131 109 100 86 87 73 75 66 59 50 42 47 50 42 28 12 357 321 268 319 292 283 278 276 273 270 271 272 274 278
88 98 109 98 99 94 98 125 134 137 122 139 137 133 134 130 123 116 75 89 83 80 69 58 51 55 53 51 47 38 26 14 5 56 321 258 258 275 277 273 269 269 272 275 283
74 101 123 107 98 99 101 108 113 125 121 119 131 120 121 107 120 111 75 94 86 81 68 60 60 54 56 48 41 41 41 40 41 29 19 38 248 252 284 278 271 271 273 278 281
317 283 229 239 111 113 131 102 105 109 117 111 113 116 99 98 113 86 76 91 83 74 66 75 73 61 54 42 54 40 61 52 47 45 53 65 79 133 221 276 272 274 275 276 284
312 295 146 75 116 124 98 78 79 131 109 116 123 86 94 111 118 98 68 88 76 75 75 66 69 61 53 60 61 48 54 44 45 54 57 72 79 99 139 161 176 22 299 286 297
297 279 102 83 77 77 81 77 104 115 109 103 119 102 100 106 106 104 88 71 83 72 82 74 90 79 73 67 63 46 44 47 68 68 61 66 71 79 84 103 127 356 320 294 298
299 256 65 67 77 67 65 93 92 104 90 95 83 85 87 82 84 80 73 71 64 52 46 56 75 87 82 58 66 55 48 54 55 54 54 58 57 68 106 126 92 135 160 265 286
299 50 54 50 41 42 61 68 83 75 84 73 71 85 74 68 73 67 67 63 71 63 49 46 51 68 76 67 57 56 59 53 46 46 42 50 51 50 50 306 12 70 238 237 227
54 46 45 39 39 35 43 28 52 50 52 56 55 62 61 59 58 52 55 64 67 66 49 50 47 71 76 72 66 59 54 67 55 60 48 52 49 48 61 329 13 186 203 215 213
37 43 35 43 35 29 17 12 20 39 32 30 37 38 44 46 45 44 53 60 56 68 61 53 40 64 63 67 73 68 68 50 54 45 41 48 47 53 68 132 174 198 205 201 199
27 19 42 36 31 8 357 356 2 17 24 19 14 13 20 26 28 37 50 48 57 50 54 49 52 47 47 58 58 61 55 59 57 56 47 41 49 84 88 124 151 180 189 195 203
18 15 27 22 3 2 352 352 357 2 11 8 7 8 9 10 12 21 31 34 47 43 35 49 41 27 33 54 63 65 55 56 43 44 52 47 58 105 122 127 143 171 187 195 193
1 12 14 15 354 347 348 347 348 349 350 350 347 354 358 355 359 6 6 14 30 25 26 32 30 16 30 46 47 37 44 52 43 42 38 42 54 87 117 125 151 192 202 202 5
355 350 0 5 9 353 338 337 336 345 341 343 339 344 343 342 349 346 350 359 7 3 9 16 12 10 356 348 4 353 4 22 45 30 30 7 300 260 258 254 245 231 231 235 249
349 343 349 341 346 348 347 340 330 330 341 340 335 332 335 332 335 336 342 340 347 350 352 356 350 350 332 311 302 295 292 309 273 264 354 4 343 273 271 264 259 248 242 241 244
336 335 337 333 335 338 341 339 335 325 328 327 322 324 325 322 323 322 327 331 334 342 341 344 339 341 341 351 359 342 320 298 280 260 270 265 270 259 255 244 256 257 264 276 338
336 336 330 326 327 326 328 331 332 332 332 331 327 315 313 314 314 317 318 319 317 322 323 327 333 338 336 342 336 348 3 355 356 352 336 329 318 352 342 1 307 313 294 262 303